Showing default

AEROCUBE 7, 40966

Orbit data source: Space-Track

AEROCUBE 7, 40966 is a payload satellite owned by AERO (US) in LEO that was launched on Thu, 08 Oct 2015 UTC via an ATLAS V 401 launch vehicle from the Air Force Western Test Range (AFWTR). Payloads include a variety of satellites, spacecraft, and rockets equipped with specific instruments for various scientific and technological missions. These include communications satellites like Starlink; space stations such as the ISS; scientific satellites like the Hubble; Earth observation satellites from companies like Planet Labs, Umbra, and HawkEye 360; GPS; miniature CubeSats for education and research; and military/defense satellites.

Loading next visibility...
AEROCUBE 7 details
Identifier
40966, 2015-058C
Orbit
LEO
Last TLE update21 hours ago
Origin
Flag of USAERO (US)
ManufacturerAERO
MissionOperational Commercial Technology
Bus & MotorCUBESAT 1.5U, Unknown motor
Mass2 kg wet, 2 kg dry
Launch date (UTC)
2015-10-08 (9 years ago)
Launch vehicle
ATLAS V 401
Launch site
Air Force Western Test Range (AFWTR)
Object type
Payload
Rocket body
Debris
Shape & HBRBox, 0.2 m
Radar Cross Section0.040 m², Medium (>0.1 m² and < 1m²)

Expand to show TLE details & history

TLE from 21 hours ago
0 AEROCUBE 7
1 40966U 15058C   24360.61330434  .00014202  00000-0  11326-2 0  9997
2 40966  64.7650 124.2402 0178987 250.7118 107.4560 14.88755887285564
Epoch: 2024-12-25T14:43Z
Definitive object data (Epoch: 2024-12-25T14:43:09.494Z)
Latitude-0.00001°
Longitude168.8461°
Altitude643.324 km
Speed7.515 km/s
True Right ascension08h 16m 57s
True Declination0° 00' 00"
Sunlit
Object was in full shadow at TLE epoch
Visualization TLE readout
Latitude-3.00192°
Longitude164.73415°
Altitude637.375 km
Speed7.522 km/s
Apparent Right ascension05h 03m 03s
Apparent Declination-41° 45' 49"
Sunlit
Object is in full shadow
Visualization observer readout
Local Sidereal Time11:01:08
Azimuth235.383° WSW
Elevation-24.999°
Doppler factor1
Orbital elements
Apogee altitude725.297 km
Perigee altitude475.484 km
Semi-major axis6,978.528 km
Eccentricity0.0178987
Inclination64.765°
RAAN124.2402°
Arg. of periapsis250.7118°
True anomaly109.39917°
Mean anomaly107.456°
Eccentric anomaly108.42893°
Mean motion3.72304 °/min
BSTAR0.0011326
Orbital period96.7 mins
Loading maneuver chart data...
Loading historical data...
Loading historical data...
Loading historical data...
Loading historical data...
Loading historical data...
Loading historical data...
Loading historical data...

AEROCUBE 7 Visibility forecast

Observer location: undefined°, undefined

Span
Click to sort rows by Start time (UTC) header in descending order
Start Az.
Max El. time (UTC)
Max El. Az.
Max El.
End time (UTC)
End Az.
5 mins2024-12-26 11:53:45.474Z284.49° WNW2024-12-26 11:56:45.474Z323.246° NNW15.84°2024-12-26 11:58:45.474Z349.287° N
7 mins2024-12-26 18:40:45.474Z340.976° N2024-12-26 18:43:45.474Z34.85° NE38.907°2024-12-26 18:47:45.474Z130.163° SE
4 mins2024-12-26 20:21:45.474Z272.939° WNW2024-12-26 20:22:45.474Z258.247° W15.425°2024-12-26 20:25:45.474Z215.693° SW
5 mins2024-12-27 08:46:45.474Z139.949° SSE2024-12-27 08:48:45.474Z110.75° ESE18.247°2024-12-27 08:51:45.474Z69.991° E
8 mins2024-12-27 10:24:45.474Z234.413° WSW2024-12-27 10:27:45.474Z293.241° NW38.836°2024-12-27 10:32:45.474Z22.967° NE
|